Regional Weather Roundup
Issued by NWS

Home | Current Version | Previous Version | Graphics & Text | Print | Product List | Glossary On
Versions: 1 2 3 4 5 6 7 8 9 10 11 12 13 14 15 16 17 18 19 20 21 22 23 24 25 26 27 28 29 30 31 32 33 34 35 36 37 38 39 40 41 42 43 44 45 46 47 48 49 50
000
ASUS43 KOAX 290202
RWRNE

WEATHER ROUNDUP FOR NEBRASKA
NATIONAL WEATHER SERVICE OMAHA NE
800 PM CST FRI NOV 28 2014

NOTES: SATELLITE DATA IS BEING USED TO AUGMENT CLOUD COVER ABOVE
       12000 FEET.
       "FAIR" INDICATES FEW OR NO CLOUDS BELOW 12,000 FEET WITH NO
       SIGNIFICANT WEATHER AND/OR OBSTRUCTIONS TO VISIBILITY.

  * THESE STATIONS DO NOT REPORT WEATHER SUCH AS RAIN...SNOW OR FOG.

NEZ001>004-019>022-054>056-290300-
NEBRASKA PANHANDLE

CITY           SKY/WX    TMP DP  RH WIND       PRES   REMARKS
SCOTTSBLUFF    MOCLDY    41  23  48 SE8       29.71F
ALLIANCE       MOCLDY    45  18  34 W3        29.68F
CHADRON        PTCLDY   N/A N/A N/A SW12      29.62F
SIDNEY         CLOUDY    38  21  50 W10       29.77S WCI  31
$$

NEZ057>060-069>072-079>082-290300-
SOUTHWEST NEBRASKA

CITY           SKY/WX    TMP DP  RH WIND       PRES   REMARKS
NORTH PLATTE   MOCLDY    37  21  52 N3        29.69F
IMPERIAL       CLOUDY    45  18  34 SW9       29.73S
LEXINGTON      MOCLDY    48  18  30 W8        29.67S
MCCOOK         MOCLDY    50  13  22 SW9       29.70S
$$

NEZ005>010-023>029-035>040-094-290300-
NORTH CENTRAL NEBRASKA

CITY           SKY/WX    TMP DP  RH WIND       PRES   REMARKS
VALENTINE      MOCLDY    46  26  45 SW5       29.58F
BROKEN BOW     MOCLDY    41  18  39 W6        29.64F
ORD            MOCLDY    43  21  41 CALM      29.61F
$$

NEZ041-046>049-061>064-073>077-083>087-290300-
SOUTH CENTRAL NEBRASKA

CITY           SKY/WX    TMP DP  RH WIND       PRES   REMARKS
GRAND ISLAND   CLOUDY    46  23  40 SW9       29.64F
AURORA         CLOUDY    45  28  50 SW7       29.63F
HASTINGS       CLOUDY    52  20  28 SW5       29.65F
KEARNEY *      MOCLDY    48  18  29 SW6       29.67F
YORK           CLOUDY    45  32  61 SW9       29.64F
$$

NEZ011>018-030>034-042>045-290300-
NORTHEAST NEBRASKA

CITY           SKY/WX    TMP DP  RH WIND       PRES   REMARKS
NORFOLK        CLOUDY    40  30  67 SE5       29.60F
BLAIR          CLOUDY    46  32  57 S9        29.62F
COLUMBUS *     CLOUDY    39  27  60 CALM      29.63S
TEKAMAH        MOCLDY    34  26  72 S7        29.63F WCI  28
$$

NEZ050>053-065>068-078-088>093-290300-
SOUTHEAST NEBRASKA

CITY           SKY/WX    TMP DP  RH WIND       PRES   REMARKS
LINCOLN        MOCLDY    50  31  48 SW5       29.65F
OMAHA EPPLEY   CLOUDY    43  32  65 S9        29.65F
FALLS CITY     MOCLDY    52  34  50 S9        29.69F
PLATTSMOUTH    CLOUDY    46  30  53 S10       29.64F
$$

NEZ044-045-051>053-067-290300-
OMAHA AREA

CITY           SKY/WX    TMP DP  RH WIND       PRES   REMARKS
OMAHA EPPLEY   CLOUDY    43  32  65 S9        29.65F
BLAIR          CLOUDY    46  32  57 S9        29.62F
OFFUTT AFB     CLOUDY    36  29  76 SE5       29.63F WCI  32
PLATTSMOUTH    CLOUDY    46  30  53 S10       29.64F
$$



USA.gov is the U.S. government's official web portal to all federal, state and local government web resources and services.